W2CS Weather Reports


time (UTC)temp
C
wind
direction
speed
KPH
gust
KPH
rain 1hr
cm
rain 24hr
cm
rain mn
cm
humidity
%
barometer
mb
20260503212539 11 0 1.6 6.4 0.00 0.00 0.00 53 1007.3
20260503212041 11 330 1.6 6.4 0.00 0.00 0.00 52 1007.2
20260503211601 12 343 1.6 6.4 0.00 0.00 0.00 53 1007.2
20260503211042 12 326 1.6 6.4 0.00 0.00 0.00 53 1007.0
20260503210539 12 51 1.6 6.4 0.00 0.00 0.00 50 1007.0
20260503210046 12 65 1.6 6.4 0.00 0.00 0.00 54 1006.9
20260503205539 12 353 1.6 8.0 0.00 0.00 0.00 50 1007.0
20260503205039 12 14 1.6 8.0 0.00 0.00 0.00 53 1006.8
20260503204552 12 3 1.6 4.8 0.00 0.00 0.00 54 1006.7
20260503204038 12 351 1.6 4.8 0.00 0.00 0.00 50 1006.6
20260503203535 13 108 1.6 9.7 0.00 0.00 0.00 51 1006.6
20260503203049 13 353 3.2 9.7 0.00 0.00 0.00 50 1006.5
20260503202539 13 353 3.2 6.4 0.00 0.00 0.00 50 1006.5
20260503202039 13 359 1.6 6.4 0.00 0.00 0.00 52 1006.4
20260503201549 13 316 1.6 6.4 0.00 0.00 0.00 55 1006.3
20260503201039 12 331 1.6 6.4 0.00 0.00 0.00 53 1006.2
20260503200542 12 59 3.2 6.4 0.00 0.00 0.00 52 1006.1
20260503200049 11 293 1.6 6.4 0.00 0.00 0.00 57 1006.2
20260503195539 11 349 1.6 6.4 0.00 0.00 0.00 58 1006.2
20260503195039 11 359 1.6 11.3 0.00 0.00 0.00 57 1006.3
20260503194551 11 351 1.6 11.3 0.00 0.00 0.00 59 1006.2
20260503194040 11 316 1.6 4.8 0.00 0.00 0.00 59 1006.1
20260503193539 11 328 1.6 4.8 0.00 0.00 0.00 57 1006.2
20260503193054 11 328 1.6 6.4 0.00 0.00 0.00 53 1006.1
20260503192539 12 304 1.6 6.4 0.00 0.00 0.00 57 1006.1
20260503192043 12 293 1.6 4.8 0.00 0.00 0.00 55 1006.2
20260503191550 11 276 1.6 4.8 0.00 0.00 0.00 58 1006.2
20260503191039 11 313 0.0 6.4 0.00 0.00 0.00 57 1006.2
20260503190540 11 75 1.6 6.4 0.00 0.00 0.00 58 1006.2
20260503190046 12 258 1.6 6.4 0.00 0.00 0.00 57 1006.4
20260503185539 12 308 1.6 6.4 0.00 0.00 0.00 56 1006.4
20260503185039 12 325 1.6 6.4 0.00 0.00 0.00 60 1006.3
20260503184557 12 207 1.6 6.4 0.00 0.00 0.00 61 1006.2
20260503184039 12 327 1.6 6.4 0.00 0.00 0.00 58 1006.4
20260503183538 12 8 3.2 9.7 0.00 0.00 0.00 56 1006.4
20260503183054 12 0 3.2 9.7 0.00 0.00 0.00 55 1006.4
20260503182539 12 109 1.6 9.7 0.00 0.00 0.00 61 1006.4
20260503182043 12 297 1.6 11.3 0.00 0.00 0.00 60 1006.5
20260503181620 12 349 1.6 11.3 0.00 0.00 0.00 58 1006.4
20260503181039 12 14 1.6 9.7 0.00 0.00 0.00 60 1006.5
20260503180539 12 302 3.2 14.5 0.00 0.00 0.00 57 1006.5
20260503180124 12 230 1.6 14.5 0.00 0.00 0.00 60 1006.5
20260503175539 12 331 1.6 11.3 0.00 0.00 0.00 60 1006.3
20260503175039 12 337 1.6 11.3 0.00 0.00 0.00 61 1006.4
20260503174556 12 291 1.6 11.3 0.00 0.00 0.00 61 1006.4
20260503174039 12 314 1.6 9.7 0.00 0.00 0.00 61 1006.4
20260503173539 12 206 1.6 9.7 0.00 0.00 0.00 64 1006.4
20260503173056 11 315 1.6 9.7 0.00 0.00 0.00 66 1006.5
20260503172538 11 8 3.2 9.7 0.00 0.00 0.00 65 1006.5
20260503172038 11 345 1.6 8.0 0.00 0.00 0.00 69 1006.4
20260503171549 11 0 1.6 8.0 0.00 0.00 0.00 70 1006.4
20260503171038 11 309 1.6 6.4 0.00 0.00 0.00 71 1006.4
20260503170540 11 328 1.6 6.4 0.00 0.00 0.00 68 1006.5
20260503150539 10 296 1.6 6.4 0.00 0.00 0.00 72 1005.8
20260503131038 11 358 1.6 4.8 0.00 0.00 0.00 75 1005.5
20260503130538 11 28 1.6 4.8 0.00 0.00 0.00 74 1005.6
20260503120105 8 75 1.6 6.4 0.00 0.00 0.00 84 1006.0
20260503110542 5 0 0.0 4.8 0.00 0.00 0.00 91 1006.3
20260503100106 5 0 0.0 0.0 0.00 0.00 0.00 92 1006.4
20260503081546 5 0 0.0 3.2 0.00 0.00 0.00 92 1007.0
20260503081039 5 0 0.0 3.2 0.00 0.00 0.00 92 1007.0
20260503080541 5 0 0.0 3.2 0.00 0.00 0.00 92 1006.9
20260503072542 6 0 0.0 1.6 0.00 0.00 0.00 93 1007.5
20260503072039 6 0 0.0 1.6 0.00 0.00 0.00 92 1007.7
20260503071555 6 0 0.0 0.0 0.00 0.00 0.00 93 1007.5
20260503071043 6 0 0.0 1.6 0.00 0.00 0.00 93 1007.5
20260503070539 6 0 0.0 3.2 0.00 0.00 0.00 93 1007.6
20260503060112 8 0 0.0 0.0 0.00 0.00 0.00 93 1008.4
20260503055038 8 0 0.0 0.0 0.00 0.00 0.00 94 1008.4
20260503054552 8 0 0.0 1.6 0.00 0.00 0.00 94 1008.4
20260503054039 8 0 0.0 1.6 0.00 0.00 0.00 94 1008.5
20260503053539 8 0 0.0 0.0 0.00 0.00 0.00 94 1008.6
20260503053047 8 0 0.0 0.0 0.00 0.00 0.00 94 1009.0
20260503052539 8 0 0.0 0.0 0.00 0.00 0.00 94 1008.9
20260503052039 8 0 0.0 0.0 0.00 0.00 0.00 93 1008.9
20260503051549 8 0 0.0 0.0 0.00 0.00 0.00 93 1008.8
20260503051038 8 0 0.0 0.0 0.00 0.00 0.00 94 1008.8
20260503050539 8 0 0.0 0.0 0.00 0.00 0.00 93 1008.9
20260503050049 8 0 0.0 0.0 0.00 0.00 0.00 94 1009.0
20260503045538 8 0 0.0 0.0 0.00 0.00 0.00 94 1009.2
20260503045039 8 0 0.0 0.0 0.00 0.00 0.00 94 1009.3
20260503044618 8 0 0.0 0.0 0.00 0.00 0.00 94 1009.5
20260503044040 8 0 0.0 0.0 0.00 0.00 0.00 94 1009.5
20260503043539 8 0 0.0 0.0 0.00 0.00 0.00 94 1009.8
20260503043050 8 0 0.0 0.0 0.00 0.00 0.00 94 1009.9
20260503042539 8 0 0.0 0.0 0.00 0.00 0.00 94 1010.0
20260503042041 8 0 0.0 0.0 0.00 0.00 0.00 94 1009.9
20260503041553 8 0 0.0 0.0 0.00 0.00 0.00 93 1009.8
20260503041042 8 0 0.0 0.0 0.00 0.00 0.00 93 1009.9
20260503040538 8 0 0.0 0.0 0.00 0.00 0.00 93 1010.0
20260503040054 8 0 0.0 0.0 0.00 0.00 0.00 93 1009.8
20260503035539 8 0 0.0 0.0 0.00 0.00 0.00 93 1010.2
20260503035039 8 0 0.0 0.0 0.00 0.00 0.00 93 1010.2
20260503034546 8 0 0.0 0.0 0.00 0.00 0.00 93 1010.2
20260503034036 8 0 0.0 0.0 0.00 0.00 0.00 93 1010.1
20260503033538 8 0 0.0 0.0 0.00 0.00 0.00 93 1010.1
20260503033049 8 0 0.0 0.0 0.00 0.00 0.00 93 1010.0
20260503032539 8 0 0.0 0.0 0.00 0.00 0.00 93 1009.9
20260503032039 8 0 0.0 0.0 0.00 0.00 0.00 93 1009.8
20260503031547 8 0 0.0 0.0 0.00 0.00 0.00 93 1010.0
20260503031039 8 0 0.0 0.0 0.00 0.00 0.00 93 1009.9
20260503030538 8 0 0.0 0.0 0.00 0.00 0.00 93 1010.0
20260503030055 8 0 0.0 0.0 0.00 0.00 0.00 93 1009.9
20260503025539 8 0 0.0 0.0 0.00 0.00 0.00 93 1010.1
20260503025039 8 0 0.0 0.0 0.00 0.00 0.00 93 1010.0
20260503024558 8 0 0.0 0.0 0.00 0.00 0.00 93 1010.1
20260503024039 8 0 0.0 3.2 0.00 0.00 0.00 93 1010.1
20260503023538 8 0 0.0 3.2 0.00 0.00 0.00 93 1010.2
20260503023058 8 0 0.0 0.0 0.00 0.00 0.00 93 1010.3
20260503022535 8 0 0.0 0.0 0.00 0.00 0.00 93 1010.3
20260503022038 8 0 0.0 0.0 0.00 0.00 0.00 93 1010.6
20260503021549 8 0 0.0 0.0 0.00 0.00 0.00 93 1010.5
20260503021039 8 0 0.0 0.0 0.00 0.00 0.00 93 1010.5
20260503020539 8 0 0.0 0.0 0.00 0.00 0.00 93 1010.6
20260503020047 8 0 0.0 0.0 0.00 0.00 0.00 93 1010.6
20260503015540 8 0 0.0 0.0 0.00 0.00 0.00 93 1010.6
20260503015039 8 0 0.0 0.0 0.00 0.00 0.00 93 1010.5
20260503014554 8 0 0.0 1.6 0.00 0.00 0.00 93 1010.8
20260503014039 8 0 0.0 1.6 0.00 0.00 0.00 93 1010.8
20260503013541 8 0 0.0 1.6 0.00 0.00 0.00 93 1010.9
20260503013057 8 0 0.0 0.0 0.00 0.00 0.00 93 1011.0
20260503012543 8 0 0.0 0.0 0.00 0.00 0.00 93 1010.9
20260503012039 8 0 0.0 0.0 0.00 0.00 0.00 93 1010.8
20260503011553 8 0 0.0 0.0 0.00 0.00 0.00 93 1010.7
20260503011038 8 0 0.0 0.0 0.00 0.00 0.00 93 1010.6
20260503010538 8 0 0.0 0.0 0.00 0.00 0.00 93 1010.8
20260503010050 8 0 0.0 0.0 0.00 0.00 0.00 93 1010.8
20260503005536 8 0 0.0 1.6 0.00 0.00 0.00 93 1010.7
20260503005043 8 0 0.0 1.6 0.00 0.00 0.00 92 1010.5
20260503004555 8 0 0.0 1.6 0.00 0.00 0.00 92 1010.6
20260503004039 8 0 0.0 0.0 0.00 0.00 0.00 92 1010.7
20260503003539 8 0 0.0 0.0 0.00 0.00 0.00 92 1010.7
20260503003108 8 0 0.0 0.0 0.00 0.00 0.00 92 1010.7
20260503002541 8 0 0.0 1.6 0.00 0.00 0.00 92 1010.6
20260503002039 8 0 0.0 3.2 0.00 0.00 0.00 92 1010.5
20260503001550 8 0 0.0 3.2 0.00 0.00 0.00 92 1010.6
20260503001038 9 258 0.0 0.0 0.00 0.00 0.00 92 1010.9
20260503000535 9 0 0.0 0.0 0.00 0.00 0.00 92 1011.0
20260503000051 9 0 0.0 1.6 0.00 0.00 0.00 92 1010.9
20260502235538 9 0 0.0 1.6 0.00 0.00 0.00 92 1010.5
20260502235038 9 0 0.0 1.6 0.00 0.00 0.00 92 1010.4
20260502234602 9 0 0.0 0.0 0.00 0.00 0.00 91 1010.5
20260502234040 9 0 0.0 0.0 0.00 0.00 0.00 91 1010.7
20260502233539 9 0 0.0 3.2 0.00 0.00 0.00 91 1010.6
20260502233047 9 0 0.0 3.2 0.00 0.00 0.00 91 1010.7
20260502232539 9 258 0.0 3.2 0.00 0.00 0.00 91 1010.6
20260502232039 9 0 0.0 0.0 0.00 0.00 0.00 91 1011.0
20260502231554 9 0 0.0 0.0 0.00 0.00 0.00 91 1010.7
20260502231036 10 0 0.0 0.0 0.00 0.00 0.00 91 1010.6
20260502230536 10 0 0.0 0.0 0.00 0.00 0.00 90 1010.8
20260502230055 10 0 0.0 0.0 0.00 0.00 0.00 90 1010.7
20260502225538 10 0 0.0 3.2 0.00 0.00 0.00 90 1010.8
20260502225039 10 0 0.0 3.2 0.00 0.00 0.00 90 1010.7
20260502224552 10 0 0.0 3.2 0.00 0.00 0.00 90 1010.6
20260502224040 10 0 0.0 3.2 0.00 0.00 0.00 90 1010.6
20260502223539 10 0 0.0 3.2 0.00 0.00 0.00 89 1010.5
20260502223059 10 0 0.0 3.2 0.00 0.00 0.00 89 1010.5
20260502222539 10 0 0.0 3.2 0.00 0.00 0.00 89 1010.6
20260502222038 10 0 0.0 3.2 0.00 0.00 0.00 88 1010.5
20260502221546 10 0 0.0 3.2 0.00 0.00 0.00 88 1010.6
20260502221038 10 0 0.0 3.2 0.00 0.00 0.00 88 1010.5
20260502220539 10 258 0.0 1.6 0.00 0.00 0.00 88 1010.5
20260502220056 10 0 0.0 1.6 0.00 0.00 0.00 88 1010.5
20260502215538 10 0 0.0 1.6 0.00 0.00 0.00 87 1010.5
20260502215038 10 0 0.0 1.6 0.00 0.00 0.00 87 1010.5
20260502214607 10 0 0.0 1.6 0.00 0.00 0.00 87 1010.6
20260502214035 10 0 0.0 1.6 0.00 0.00 0.00 87 1010.5
20260502213541 11 0 0.0 0.0 0.00 0.00 0.00 87 1010.6
20260502213104 11 0 0.0 1.6 0.00 0.00 0.00 87 1010.7